Location: Buckeye Ditch
(40.9104°N, 122.9517°W)
Time: 01:35:17
(UTC+00:00)

SR - Pass Details

Date: 20 May 2025
Orbit: 570 x 855 km, 66.7° (Epoch: 11 June)

Event Time Altitude Azimuth Distance (km) Brightness Sun altitude
Exits shadow 08:08:03 66° 69° (ENE) 932 ? -29.0°
Drops below altitude 10° 08:13:10 10° 33° (NNE) 2,484 ? -29.0°
Sets 08:15:38 0° 32° (NNE) 3,409 ? -29.0°
